Time,TemperatureF,DewpointF,PressureIn,WindDirection,WindDirectionDegrees,WindSpeedMPH,WindSpeedGustMPH,Humidity,HourlyPrecipIn,Conditions,Clouds,dailyrainin,SoftwareType,DateUTC
2015-04-26 00:21:00,46.0,44.0,-100.00,ESE,117,2.0,3.0,93,-99.99,,,-99.99,,2015-04-26 07:21:00,
2015-04-26 00:31:00,46.0,44.0,-100.00,ESE,117,2.0,3.0,93,-99.99,,,-99.99,,2015-04-26 07:31:00,
2015-04-26 00:42:00,46.0,44.0,-100.00,ESE,117,2.0,3.0,93,-99.99,,,-99.99,,2015-04-26 07:42:00,
2015-04-26 00:51:00,46.0,44.0,-100.00,ESE,117,2.0,3.0,93,-99.99,,,-99.99,,2015-04-26 07:51:00,
2015-04-26 01:21:00,45.0,43.0,-100.00,SE,141,2.0,5.0,94,-99.99,,,-99.99,,2015-04-26 08:21:00,
2015-04-26 01:31:00,45.0,43.0,-100.00,SE,141,2.0,5.0,94,-99.99,,,-99.99,,2015-04-26 08:31:00,
2015-04-26 01:41:00,45.0,43.0,-100.00,SE,141,2.0,5.0,94,-99.99,,,-99.99,,2015-04-26 08:41:00,
2015-04-26 01:51:00,45.0,43.0,-100.00,SE,141,2.0,5.0,94,-99.99,,,-99.99,,2015-04-26 08:51:00,
2015-04-26 02:21:00,44.0,43.0,-100.00,SSE,157,3.0,3.0,95,-99.99,,,-99.99,,2015-04-26 09:21:00,
2015-04-26 02:31:00,44.0,43.0,-100.00,SSE,157,3.0,3.0,95,-99.99,,,-99.99,,2015-04-26 09:31:00,
2015-04-26 02:41:00,44.0,43.0,-100.00,SSE,157,3.0,3.0,95,-99.99,,,-99.99,,2015-04-26 09:41:00,
2015-04-26 02:51:00,44.0,43.0,-100.00,SSE,157,3.0,3.0,95,-99.99,,,-99.99,,2015-04-26 09:51:00,
2015-04-26 03:41:00,44.0,43.0,-100.00,SSE,163,3.0,4.0,95,-99.99,,,-99.99,,2015-04-26 10:41:00,
2015-04-26 03:51:00,44.0,43.0,-100.00,SSE,163,3.0,4.0,95,-99.99,,,-99.99,,2015-04-26 10:51:00,
2015-04-26 04:42:00,42.0,41.0,-100.00,SSE,162,3.0,4.0,97,-99.99,,,-99.99,,2015-04-26 11:42:00,
2015-04-26 04:51:00,42.0,41.0,-100.00,SSE,162,3.0,4.0,97,-99.99,,,-99.99,,2015-04-26 11:51:00,
2015-04-26 05:42:00,42.0,41.0,-100.00,South,174,3.0,4.0,96,-99.99,,,-99.99,,2015-04-26 12:42:00,
2015-04-26 05:51:00,42.0,41.0,-100.00,South,174,3.0,4.0,96,-99.99,,,-99.99,,2015-04-26 12:51:00,
2015-04-26 06:41:00,43.0,42.0,-100.00,South,180,2.0,4.0,96,-99.99,,,-99.99,,2015-04-26 13:41:00,
2015-04-26 06:51:00,43.0,42.0,-100.00,South,180,2.0,4.0,96,-99.99,,,-99.99,,2015-04-26 13:51:00,
2015-04-26 07:21:00,42.0,41.0,-100.00,West,276,2.0,4.0,96,-99.99,,,-99.99,,2015-04-26 14:21:00,
2015-04-26 07:31:00,42.0,41.0,-100.00,West,276,2.0,4.0,96,-99.99,,,-99.99,,2015-04-26 14:31:00,
2015-04-26 07:41:00,42.0,41.0,-100.00,West,276,2.0,4.0,96,-99.99,,,-99.99,,2015-04-26 14:41:00,
2015-04-26 07:51:00,42.0,41.0,-100.00,West,276,2.0,4.0,96,-99.99,,,-99.99,,2015-04-26 14:51:00,
2015-04-26 08:21:00,52.0,47.0,-100.00,South,183,1.0,3.0,82,-99.99,,,-99.99,,2015-04-26 15:21:00,
2015-04-26 08:31:00,52.0,47.0,-100.00,South,183,1.0,3.0,82,-99.99,,,-99.99,,2015-04-26 15:31:00,
2015-04-26 08:41:00,52.0,47.0,-100.00,South,183,1.0,3.0,82,-99.99,,,-99.99,,2015-04-26 15:41:00,
2015-04-26 08:51:00,52.0,47.0,-100.00,South,183,1.0,3.0,82,-99.99,,,-99.99,,2015-04-26 15:51:00,
2015-04-26 09:41:00,58.0,47.0,-100.00,WSW,249,3.0,4.0,68,-99.99,,,-99.99,,2015-04-26 16:41:00,
2015-04-26 09:52:00,58.0,47.0,-100.00,WSW,249,3.0,4.0,68,-99.99,,,-99.99,,2015-04-26 16:52:00,
2015-04-26 10:42:00,62.0,46.0,-100.00,WNW,286,4.0,8.0,56,-99.99,,,-99.99,,2015-04-26 17:42:00,
2015-04-26 10:51:00,62.0,46.0,-100.00,WNW,286,4.0,8.0,56,-99.99,,,-99.99,,2015-04-26 17:51:00,
2015-04-26 11:21:00,63.0,47.0,-100.00,WNW,297,7.0,14.0,56,-99.99,,,-99.99,,2015-04-26 18:21:00,
2015-04-26 11:32:00,63.0,47.0,-100.00,WNW,297,7.0,14.0,56,-99.99,,,-99.99,,2015-04-26 18:32:00,
2015-04-26 11:42:00,63.0,47.0,-100.00,WNW,297,7.0,14.0,56,-99.99,,,-99.99,,2015-04-26 18:42:00,
2015-04-26 11:52:00,63.0,47.0,-100.00,WNW,297,7.0,14.0,56,-99.99,,,-99.99,,2015-04-26 18:52:00,
2015-04-26 12:42:00,66.0,49.0,-100.00,WNW,297,6.0,14.0,54,-99.99,,,-99.99,,2015-04-26 19:42:00,
2015-04-26 12:51:00,66.0,49.0,-100.00,WNW,297,6.0,14.0,54,-99.99,,,-99.99,,2015-04-26 19:51:00,
2015-04-26 13:21:00,67.0,49.0,-100.00,NW,310,9.0,16.0,52,-99.99,,,-99.99,,2015-04-26 20:21:00,
2015-04-26 13:31:00,67.0,49.0,-100.00,NW,310,9.0,16.0,52,-99.99,,,-99.99,,2015-04-26 20:31:00,
2015-04-26 13:41:00,67.0,49.0,-100.00,NW,310,9.0,16.0,52,-99.99,,,-99.99,,2015-04-26 20:41:00,
2015-04-26 13:51:00,67.0,49.0,-100.00,NW,310,9.0,16.0,52,-99.99,,,-99.99,,2015-04-26 20:51:00,
2015-04-26 14:21:00,70.0,49.0,-100.00,WNW,301,7.0,19.0,47,-99.99,,,-99.99,,2015-04-26 21:21:00,
2015-04-26 14:31:00,70.0,49.0,-100.00,WNW,301,7.0,19.0,47,-99.99,,,-99.99,,2015-04-26 21:31:00,
2015-04-26 14:41:00,70.0,49.0,-100.00,WNW,301,7.0,19.0,47,-99.99,,,-99.99,,2015-04-26 21:41:00,
2015-04-26 14:51:00,70.0,49.0,-100.00,WNW,301,7.0,19.0,47,-99.99,,,-99.99,,2015-04-26 21:51:00,
2015-04-26 15:21:00,71.0,46.0,-100.00,NW,314,8.0,20.0,41,-99.99,,,-99.99,,2015-04-26 22:21:00,
2015-04-26 15:31:00,71.0,46.0,-100.00,NW,314,8.0,20.0,41,-99.99,,,-99.99,,2015-04-26 22:31:00,
2015-04-26 15:41:00,71.0,46.0,-100.00,NW,314,8.0,20.0,41,-99.99,,,-99.99,,2015-04-26 22:41:00,
2015-04-26 15:51:00,71.0,46.0,-100.00,NW,314,8.0,20.0,41,-99.99,,,-99.99,,2015-04-26 22:51:00,